N1GUJ Weather Reports


Display with metric or nautical units.
time (UTC)temp
F
wind
direction
speed
MPH
gust
MPH
rain 1hr
in
rain 24hr
in
rain mn
in
humidity
%
barometer
mb
20260509012432 43 256 0.0 0.0 0.00 0.00 0.00 63 1010.0
20260509011925 43 256 0.0 0.0 0.00 0.00 0.00 62 1010.0
20260509011426 43 256 0.0 0.0 0.00 0.00 0.00 61 1010.0
20260509010926 43 256 0.0 0.0 0.00 0.00 0.00 60 1009.8
20260509010428 44 256 0.0 0.0 0.00 0.00 0.00 61 1009.8
20260509005925 44 256 0.0 0.0 0.00 0.00 0.00 61 1009.7
20260509005425 44 256 0.0 0.0 0.00 0.00 0.00 61 1009.6
20260509004928 44 256 0.0 0.0 0.00 0.00 0.00 62 1009.6
20260509004425 45 256 0.0 0.0 0.00 0.00 0.00 59 1009.5
20260509003925 45 256 0.0 0.0 0.00 0.00 0.00 58 1009.4
20260509003425 45 256 0.0 0.0 0.00 0.00 0.00 58 1009.4
20260509002926 46 256 0.0 0.0 0.00 0.00 0.00 56 1009.3
20260509002425 46 256 0.0 0.0 0.00 0.00 0.00 56 1009.3
20260509001925 46 256 0.0 0.0 0.00 0.00 0.00 56 1009.3
20260509001425 46 256 0.0 0.0 0.00 0.00 0.00 53 1009.2
20260509000926 47 256 0.0 0.0 0.00 0.00 0.00 51 1009.2
20260509000425 47 256 0.0 0.0 0.00 0.00 0.00 50 1009.2
20260508235925 47 256 0.0 0.0 0.00 0.00 0.00 50 1009.2
20260508235425 48 256 0.0 0.0 0.00 0.00 0.00 49 1009.1
20260508234928 48 256 0.0 0.0 0.00 0.00 0.00 49 1009.0
20260508234431 48 256 0.0 0.0 0.00 0.00 0.00 47 1009.0
20260508233926 48 256 0.0 0.0 0.00 0.00 0.00 45 1009.0
20260508233428 48 256 0.0 0.0 0.00 0.00 0.00 46 1008.9
20260508232931 49 256 0.0 0.0 0.00 0.00 0.00 44 1008.9
20260508232429 49 256 0.0 0.0 0.00 0.00 0.00 44 1008.9
20260508231925 49 256 0.0 0.0 0.00 0.00 0.00 48 1008.9
20260508231428 49 256 0.0 0.0 0.00 0.00 0.00 43 1008.8
20260508230928 49 256 0.0 0.0 0.00 0.00 0.00 46 1008.8
20260508230429 49 256 0.0 0.0 0.00 0.00 0.00 44 1008.8
20260508225925 50 256 0.0 0.0 0.00 0.00 0.00 44 1008.7
20260508225428 50 256 0.0 0.0 0.00 0.00 0.00 41 1008.8
20260508224928 50 256 0.0 0.0 0.00 0.00 0.00 46 1008.7
20260508224429 50 256 0.0 0.0 0.00 0.00 0.00 41 1008.7
20260508223925 50 256 0.0 1.0 0.00 0.00 0.00 40 1008.8
20260508223428 50 256 0.0 1.0 0.00 0.00 0.00 41 1008.7
20260508222929 50 256 0.0 1.0 0.00 0.00 0.00 41 1008.7
20260508222431 50 256 0.0 2.0 0.00 0.00 0.00 39 1008.7
20260508221932 50 255 0.0 2.0 0.00 0.00 0.00 39 1008.7
20260508221425 50 255 0.0 0.0 0.00 0.00 0.00 44 1008.7
20260508220928 50 255 0.0 1.0 0.00 0.00 0.00 38 1008.6
20260508220424 51 255 0.0 3.0 0.00 0.00 0.00 39 1008.7
20260508215924 51 255 1.0 2.0 0.00 0.00 0.00 40 1008.6
20260508215424 50 255 0.0 1.0 0.00 0.00 0.00 39 1008.6
20260508214929 50 255 0.0 3.0 0.00 0.00 0.00 41 1008.6
20260508214430 50 255 0.0 0.0 0.00 0.00 0.00 39 1008.6
20260508213930 50 255 0.0 3.0 0.00 0.00 0.00 42 1008.5
20260508213430 50 255 0.0 1.0 0.00 0.00 0.00 40 1008.5
20260508212924 50 255 0.0 2.0 0.00 0.00 0.00 39 1008.5
20260508212431 51 256 0.0 2.0 0.00 0.00 0.00 40 1008.5
20260508211924 51 217 1.0 3.0 0.00 0.00 0.00 39 1008.5
20260508211430 51 299 1.0 4.0 0.00 0.00 0.00 40 1008.5
20260508210924 50 297 1.0 4.0 0.00 0.00 0.00 41 1008.4
20260508210427 50 294 0.0 3.0 0.00 0.00 0.00 40 1008.4
20260508205933 50 294 0.0 3.0 0.00 0.00 0.00 40 1008.3
20260508205424 51 293 0.0 4.0 0.00 0.00 0.00 40 1008.3
20260508204927 51 248 1.0 3.0 0.00 0.00 0.00 41 1008.3
20260508204430 51 248 1.0 4.0 0.00 0.00 0.00 36 1008.3
20260508203924 51 267 0.0 3.0 0.00 0.00 0.00 37 1008.3
20260508203427 52 339 0.0 3.0 0.00 0.00 0.00 40 1008.3
20260508202931 52 299 2.0 4.0 0.00 0.00 0.00 40 1008.3
20260508202428 51 311 2.0 3.0 0.00 0.00 0.00 42 1008.3
20260508201924 51 311 0.0 3.0 0.00 0.00 0.00 39 1008.2
20260508201425 51 215 0.0 9.0 0.00 0.00 0.00 40 1008.3
20260508200925 51 185 1.0 6.0 0.00 0.00 0.00 39 1008.3
20260508200427 51 219 3.0 6.0 0.00 0.00 0.00 39 1008.4
20260508195925 51 237 0.0 7.0 0.00 0.00 0.00 40 1008.3
20260508195424 51 334 0.0 8.0 0.00 0.00 0.00 42 1008.4
20260508194924 51 333 1.0 4.0 0.00 0.00 0.00 43 1008.3
20260508194427 50 238 1.0 5.0 0.00 0.00 0.00 43 1008.4
20260508193927 50 260 0.0 3.0 0.00 0.00 0.00 44 1008.4
20260508193434 50 260 0.0 4.0 0.00 0.00 0.00 44 1008.3
20260508192924 50 255 3.0 5.0 0.00 0.00 0.00 45 1008.4
20260508192424 50 231 3.0 4.0 0.00 0.00 0.00 43 1008.3
20260508191924 50 273 0.0 2.0 0.00 0.00 0.00 43 1008.3
20260508191430 50 273 0.0 4.0 0.00 0.00 0.00 44 1008.4
20260508190927 49 225 5.0 5.0 0.00 0.00 0.00 47 1008.3
20260508190427 49 302 0.0 3.0 0.00 0.00 0.00 43 1008.3
20260508185933 49 299 1.0 2.0 0.00 0.00 0.00 45 1008.4
20260508185433 49 2 0.0 3.0 0.00 0.00 0.00 46 1008.4
20260508184930 49 5 1.0 3.0 0.00 0.00 0.00 46 1008.5
20260508184424 49 353 0.0 4.0 0.00 0.00 0.00 46 1008.6
20260508183928 49 2 1.0 5.0 0.00 0.00 0.00 48 1008.6
20260508183424 49 225 2.0 2.0 0.00 0.00 0.00 46 1008.5
20260508182926 48 225 0.0 3.0 0.00 0.00 0.00 46 1008.6
20260508182427 48 224 1.0 1.0 0.00 0.00 0.00 49 1008.6
20260508181926 48 224 0.0 2.0 0.00 0.00 0.00 47 1008.6
20260508181424 48 224 1.0 3.0 0.00 0.00 0.00 49 1008.6
20260508180928 48 224 0.0 2.0 0.00 0.00 0.00 46 1008.6
20260508180424 48 224 0.0 3.0 0.00 0.00 0.00 46 1008.7
20260508175924 48 224 0.0 2.0 0.00 0.00 0.00 51 1008.6
20260508175424 48 224 0.0 2.0 0.00 0.00 0.00 52 1008.5
20260508174925 48 224 0.0 3.0 0.00 0.00 0.00 49 1008.5
20260508174426 48 218 1.0 3.0 0.00 0.00 0.00 49 1008.5
20260508173924 47 193 0.0 1.0 0.00 0.00 0.00 51 1008.6
20260508173424 47 193 0.0 1.0 0.00 0.00 0.00 51 1008.7
20260508172925 47 193 1.0 3.0 0.00 0.00 0.00 52 1008.8
20260508172427 47 172 2.0 5.0 0.00 0.00 0.00 48 1008.8
20260508171928 47 274 1.0 3.0 0.00 0.00 0.00 48 1008.8
20260508171423 47 3 1.0 3.0 0.00 0.00 0.00 49 1008.7
20260508170927 47 4 0.0 1.0 0.00 0.00 0.00 49 1008.7
20260508170423 47 4 0.0 2.0 0.00 0.00 0.00 47 1008.6
20260508165925 46 5 1.0 2.0 0.00 0.00 0.00 51 1008.6
20260508165430 46 5 1.0 1.0 0.00 0.00 0.00 49 1008.5
20260508164926 46 5 0.0 0.0 0.00 0.00 0.00 52 1008.5
20260508164427 46 5 0.0 1.0 0.00 0.00 0.00 48 1008.5
20260508163924 46 5 0.0 2.0 0.00 0.00 0.00 48 1008.6
20260508163423 47 5 1.0 2.0 0.00 0.00 0.00 49 1008.5
20260508162930 47 7 0.0 4.0 0.00 0.00 0.00 48 1008.5
20260508162427 47 316 1.0 2.0 0.00 0.00 0.00 50 1008.6
20260508161923 46 316 1.0 3.0 0.00 0.00 0.00 48 1008.6
20260508161424 47 316 0.0 4.0 0.00 0.00 0.00 49 1008.5
20260508160924 47 247 0.0 2.0 0.00 0.00 0.00 49 1008.5
20260508160426 47 266 1.0 3.0 0.00 0.00 0.00 50 1008.6
20260508155923 47 228 0.0 4.0 0.00 0.00 0.00 52 1008.5
20260508155430 47 240 0.0 3.0 0.00 0.00 0.00 49 1008.4
20260508154923 47 339 0.0 4.0 0.00 0.00 0.00 48 1008.5
20260508154426 48 270 0.0 4.0 0.00 0.00 0.00 50 1008.4
20260508153923 48 268 0.0 4.0 0.00 0.00 0.00 47 1008.3
20260508153427 49 243 0.0 3.0 0.00 0.00 0.00 48 1008.4
20260508152932 49 230 3.0 4.0 0.00 0.00 0.00 48 1008.3
20260508152426 48 235 0.0 4.0 0.00 0.00 0.00 52 1008.3
20260508151926 47 234 0.0 9.0 0.00 0.00 0.00 55 1008.4
20260508151426 47 342 1.0 3.0 0.00 0.00 0.00 50 1008.3
20260508150923 47 244 0.0 4.0 0.00 0.00 0.00 51 1008.4
20260508150430 47 239 1.0 2.0 0.00 0.00 0.00 54 1008.4
20260508145923 47 238 0.0 5.0 0.00 0.00 0.00 52 1008.5
20260508145424 46 245 0.0 4.0 0.00 0.00 0.00 56 1008.5
20260508144929 46 235 2.0 5.0 0.00 0.00 0.00 59 1008.5
20260508144426 46 220 3.0 4.0 0.00 0.00 0.00 56 1008.6
20260508143926 45 340 0.0 4.0 0.00 0.00 0.00 58 1008.6
20260508143429 45 187 0.0 2.0 0.00 0.00 0.00 60 1008.6
20260508142926 44 187 0.0 3.0 0.00 0.00 0.00 61 1008.5
20260508142423 44 186 1.0 4.0 0.00 0.00 0.00 58 1008.6
20260508141923 43 266 0.0 4.0 0.00 0.00 0.00 58 1008.6
20260508141426 43 265 0.0 4.0 0.00 0.00 0.00 60 1008.6
20260508140923 43 225 0.0 2.0 0.00 0.00 0.00 61 1008.7
20260508140426 43 224 0.0 5.0 0.00 0.00 0.00 63 1008.7
20260508135922 43 275 0.0 3.0 0.00 0.00 0.00 63 1008.6
20260508135426 43 242 0.0 2.0 0.00 0.00 0.00 65 1008.7
20260508134922 43 242 0.0 5.0 0.00 0.00 0.00 62 1008.7
20260508134425 43 222 1.0 1.0 0.00 0.00 0.00 64 1008.8
20260508133922 43 222 0.0 3.0 0.00 0.00 0.00 63 1008.7
20260508133425 43 220 0.0 5.0 0.00 0.00 0.00 63 1008.7
20260508132923 42 216 0.0 3.0 0.00 0.00 0.00 64 1008.7
20260508132424 42 216 0.0 2.0 0.00 0.00 0.00 65 1008.7
20260508131925 42 216 0.0 5.0 0.00 0.00 0.00 64 1008.6
20260508131422 42 222 0.0 4.0 0.00 0.00 0.00 65 1008.7
20260508130923 42 210 0.0 3.0 0.00 0.00 0.00 66 1008.6
20260508130425 42 213 0.0 1.0 0.00 0.00 0.00 67 1008.7
20260508125925 42 213 0.0 1.0 0.00 0.00 0.00 68 1008.6
20260508125425 42 212 0.0 4.0 0.00 0.00 0.00 68 1008.6
20260508124923 42 214 2.0 4.0 0.00 0.00 0.00 68 1008.6
20260508124425 42 203 0.0 2.0 0.00 0.00 0.00 70 1008.5
20260508123928 41 203 0.0 2.0 0.00 0.00 0.00 69 1008.5
20260508123432 41 203 0.0 1.0 0.00 0.00 0.00 69 1008.5
20260508122922 41 203 0.0 1.0 0.00 0.00 0.00 69 1008.5
20260508122422 41 203 0.0 0.0 0.00 0.00 0.00 69 1008.4
20260508121923 41 203 0.0 2.0 0.00 0.00 0.00 70 1008.4
20260508121422 41 203 0.0 0.0 0.00 0.00 0.00 73 1008.3
20260508120931 40 203 0.0 3.0 0.00 0.00 0.00 72 1008.3
20260508120425 40 203 0.0 0.0 0.00 0.00 0.00 75 1008.3
20260508115922 40 203 0.0 0.0 0.00 0.00 0.00 78 1008.3
20260508115422 39 203 0.0 0.0 0.00 0.00 0.00 82 1008.2
20260508114928 39 203 0.0 0.0 0.00 0.00 0.00 82 1008.2
20260508114422 38 203 0.0 0.0 0.00 0.00 0.00 82 1008.1
20260508113928 38 203 0.0 0.0 0.00 0.00 0.00 83 1008.1
20260508113423 37 203 0.0 2.0 0.00 0.00 0.00 83 1008.0
20260508112925 37 203 0.0 1.0 0.00 0.00 0.00 85 1008.0
20260508112425 37 203 0.0 0.0 0.00 0.00 0.00 85 1007.9
20260508111922 37 203 0.0 0.0 0.00 0.00 0.00 86 1007.9
20260508111422 36 203 0.0 0.0 0.00 0.00 0.00 87 1007.8
20260508110931 36 203 0.0 0.0 0.00 0.00 0.00 86 1007.8
20260508110422 35 203 0.0 0.0 0.00 0.00 0.00 86 1007.7
20260508105928 35 203 0.0 0.0 0.00 0.00 0.00 86 1007.7
20260508105428 35 203 0.0 0.0 0.00 0.00 0.00 86 1007.7
20260508104931 35 203 0.0 0.0 0.00 0.00 0.00 86 1007.6
20260508104425 35 203 0.0 0.0 0.00 0.00 0.00 86 1007.6
20260508103925 35 203 0.0 0.0 0.00 0.00 0.00 86 1007.6
20260508103425 35 203 0.0 0.0 0.00 0.00 0.00 86 1007.6
20260508102925 34 231 0.0 0.0 0.00 0.00 0.00 86 1007.5
20260508102424 34 231 0.0 0.0 0.00 0.00 0.00 85 1007.5
20260508101925 34 231 0.0 0.0 0.00 0.00 0.00 85 1007.4
20260508101422 34 230 0.0 0.0 0.00 0.00 0.00 85 1007.4
20260508100921 34 231 0.0 0.0 0.00 0.00 0.00 85 1007.3
20260508100427 34 231 0.0 0.0 0.00 0.00 0.00 85 1007.1
20260508095923 34 231 0.0 1.0 0.00 0.00 0.00 85 1007.1
20260508095421 33 231 0.0 0.0 0.00 0.00 0.00 86 1007.2
20260508094925 33 231 0.0 0.0 0.00 0.00 0.00 86 1007.2
20260508094422 33 230 0.0 0.0 0.00 0.00 0.00 85 1007.1
20260508093925 33 231 0.0 0.0 0.00 0.00 0.00 85 1007.2
20260508093424 33 231 0.0 0.0 0.00 0.00 0.00 85 1007.1
20260508092924 33 231 0.0 0.0 0.00 0.00 0.00 84 1007.1
20260508092421 33 231 0.0 0.0 0.00 0.00 0.00 84 1007.1
20260508091921 33 231 0.0 0.0 0.00 0.00 0.00 84 1007.1
20260508091421 33 231 0.0 0.0 0.00 0.00 0.00 84 1007.1
20260508090921 33 231 0.0 0.0 0.00 0.00 0.00 84 1007.1
20260508090424 33 231 0.0 0.0 0.00 0.00 0.00 84 1007.1
20260508085921 33 230 0.0 0.0 0.00 0.00 0.00 84 1007.2
20260508085424 33 231 0.0 0.0 0.00 0.00 0.00 84 1007.2
20260508084928 33 231 0.0 0.0 0.00 0.00 0.00 83 1007.2
20260508084421 33 231 0.0 0.0 0.00 0.00 0.00 83 1007.2
20260508083921 33 231 0.0 0.0 0.00 0.00 0.00 83 1007.1
20260508083421 33 231 0.0 0.0 0.00 0.00 0.00 82 1007.1
20260508082921 33 231 0.0 0.0 0.00 0.00 0.00 82 1007.2
20260508082421 33 231 0.0 0.0 0.00 0.00 0.00 83 1007.2
20260508081921 34 230 0.0 0.0 0.00 0.00 0.00 83 1007.2
20260508081424 34 231 0.0 0.0 0.00 0.00 0.00 83 1007.2
20260508080928 33 231 0.0 0.0 0.00 0.00 0.00 83 1007.2
20260508080424 34 231 0.0 0.0 0.00 0.00 0.00 82 1007.2
20260508075925 34 231 0.0 0.0 0.00 0.00 0.00 82 1007.1
20260508075424 34 231 0.0 0.0 0.00 0.00 0.00 82 1007.1
20260508074927 34 231 0.0 0.0 0.00 0.00 0.00 82 1007.1
20260508074424 34 231 0.0 0.0 0.00 0.00 0.00 81 1007.0
20260508073921 34 231 0.0 0.0 0.00 0.00 0.00 81 1007.0
20260508073421 34 231 0.0 0.0 0.00 0.00 0.00 81 1007.0
20260508072921 34 231 0.0 0.0 0.00 0.00 0.00 80 1007.0
20260508072422 34 231 0.0 0.0 0.00 0.00 0.00 80 1007.0
20260508071921 35 231 0.0 0.0 0.00 0.00 0.00 80 1007.0
20260508071425 35 231 0.0 0.0 0.00 0.00 0.00 81 1007.0
20260508070921 35 231 0.0 0.0 0.00 0.00 0.00 80 1007.0
20260508070422 35 231 0.0 0.0 0.00 0.00 0.00 80 1007.0
20260508065921 35 231 0.0 0.0 0.00 0.00 0.00 80 1007.1
20260508065424 35 231 0.0 0.0 0.00 0.00 0.00 80 1007.1
20260508064921 35 231 0.0 0.0 0.00 0.00 0.00 80 1007.1
20260508064424 35 230 0.0 0.0 0.00 0.00 0.00 80 1007.1
20260508063927 35 231 0.0 0.0 0.00 0.00 0.00 79 1007.2
20260508063421 35 231 0.0 0.0 0.00 0.00 0.00 79 1007.2
20260508062921 36 231 0.0 0.0 0.00 0.00 0.00 78 1007.1
20260508062422 36 231 0.0 0.0 0.00 0.00 0.00 78 1007.1
20260508061923 36 231 0.0 0.0 0.00 0.00 0.00 77 1007.1
20260508061421 37 231 0.0 0.0 0.00 0.00 0.00 76 1007.1
20260508060927 37 231 0.0 0.0 0.00 0.00 0.00 76 1007.2
20260508060424 37 231 0.0 0.0 0.00 0.00 0.00 76 1007.2
20260508055923 37 231 0.0 0.0 0.00 0.00 0.00 76 1007.1
20260508055421 37 231 0.0 0.0 0.00 0.00 0.00 76 1007.2
20260508054920 37 231 0.0 0.0 0.00 0.00 0.00 76 1007.3
20260508054420 38 231 0.0 0.0 0.00 0.00 0.00 76 1007.3
20260508053924 38 231 0.0 0.0 0.00 0.00 0.00 76 1007.3
20260508053427 38 231 0.0 0.0 0.00 0.00 0.00 76 1007.3
20260508052920 38 231 0.0 0.0 0.00 0.00 0.00 76 1007.4
20260508052422 38 231 0.0 0.0 0.00 0.00 0.00 75 1007.4
20260508051920 38 231 0.0 0.0 0.00 0.00 0.00 75 1007.4
20260508051424 38 231 0.0 0.0 0.00 0.00 0.00 75 1007.5
20260508050928 38 231 0.0 0.0 0.00 0.00 0.00 76 1007.5
20260508050423 38 231 0.0 0.0 0.00 0.00 0.00 75 1007.5
20260508045920 38 231 0.0 0.0 0.00 0.00 0.00 75 1007.6
20260508045425 38 231 0.0 0.0 0.00 0.00 0.00 74 1007.6
20260508044926 38 231 0.0 0.0 0.00 0.00 0.00 74 1007.6
20260508044421 39 231 0.0 0.0 0.00 0.00 0.00 74 1007.7
20260508043920 39 231 0.0 0.0 0.00 0.00 0.00 74 1007.6
20260508043423 39 231 0.0 0.0 0.00 0.00 0.00 74 1007.7
20260508042920 39 231 0.0 0.0 0.00 0.00 0.00 75 1007.7
20260508042420 39 231 0.0 0.0 0.00 0.00 0.00 75 1007.8
20260508041923 39 231 0.0 0.0 0.00 0.00 0.00 75 1007.7
20260508041423 39 231 0.0 0.0 0.00 0.00 0.00 74 1007.7
20260508040923 38 231 0.0 0.0 0.00 0.00 0.00 74 1007.7
20260508040420 38 230 0.0 0.0 0.00 0.00 0.00 75 1007.7
20260508035923 38 231 0.0 0.0 0.00 0.00 0.00 75 1007.6
20260508035427 38 231 0.0 0.0 0.00 0.00 0.00 77 1007.6
20260508034926 39 230 0.0 0.0 0.00 0.00 0.00 77 1007.7
20260508034420 39 231 0.0 0.0 0.00 0.00 0.00 77 1007.7
20260508033921 39 231 0.0 0.0 0.00 0.00 0.00 76 1007.7
20260508033421 39 231 0.0 0.0 0.00 0.00 0.00 75 1007.7
20260508032927 39 231 0.0 0.0 0.00 0.00 0.00 73 1007.6
20260508032420 39 231 0.0 0.0 0.00 0.00 0.00 73 1007.7
20260508031920 38 231 0.0 0.0 0.00 0.00 0.00 74 1007.7
20260508031424 38 231 0.0 0.0 0.00 0.00 0.00 73 1007.7
20260508030923 38 231 0.0 0.0 0.00 0.00 0.00 74 1007.7
20260508030423 38 231 0.0 0.0 0.00 0.00 0.00 72 1007.6
20260508025923 38 230 0.0 0.0 0.00 0.00 0.00 71 1007.7
20260508025424 38 231 0.0 0.0 0.00 0.00 0.00 71 1007.8
20260508024920 38 231 0.0 0.0 0.00 0.00 0.00 70 1007.7
20260508024423 39 231 0.0 0.0 0.00 0.00 0.00 70 1007.7
20260508023920 39 231 0.0 0.0 0.00 0.00 0.00 69 1007.7
20260508023426 39 230 0.0 0.0 0.00 0.00 0.00 69 1007.7
20260508022921 39 230 0.0 0.0 0.00 0.00 0.00 69 1007.8
20260508022426 39 231 0.0 0.0 0.00 0.00 0.00 69 1007.8
20260508021924 39 231 0.0 0.0 0.00 0.00 0.00 69 1007.7
20260508021426 39 231 0.0 0.0 0.00 0.00 0.00 68 1007.7
20260508020926 39 231 0.0 0.0 0.00 0.00 0.00 68 1007.7
20260508020422 39 231 0.0 0.0 0.00 0.00 0.00 68 1007.6
20260508015923 40 230 0.0 0.0 0.00 0.00 0.00 67 1007.6
20260508015419 40 231 0.0 0.0 0.00 0.00 0.00 68 1007.6
20260508014923 40 231 0.0 0.0 0.00 0.00 0.00 66 1007.6
20260508014420 40 231 0.0 0.0 0.00 0.00 0.00 69 1007.5
20260508013919 40 231 0.0 0.0 0.00 0.00 0.00 68 1007.5
20260508013419 40 231 0.0 0.0 0.00 0.00 0.00 65 1007.5
20260508012919 40 231 0.0 0.0 0.00 0.00 0.00 64 1007.5